Location: Stara Lesna
(49.1528°N, 20.2911°E)
Time: 18:04:19
(UTC+02:00)

PSLV R/B - Pass Details

Date: 21 September 2019
Orbit: 595 x 629 km, 97.9° (Epoch: 15 October)

Event Time Altitude Azimuth Distance (km) Brightness Sun altitude
Rises 04:34:25 0° 14° (NNE) 2,930 7.6 -18.1°
Reaches altitude 10° 04:36:38 10° 15° (NNE) 2,015 6.7 -17.7°
Maximum altitude 04:41:03 85° 104° (ESE) 634 3.6 -17.1°
Enters shadow 04:44:54 13° 193° (SSW) 1,789 5.6 -16.5°
